Вернуться в каталог

ATLAS 5 CENTAUR DEB

LostHEO
NORAD 44667·DEBRIS·🇺🇸 United States

Запущен Oct 17, 2018 с Cape Canaveral Space Force Station

Loading…

Ближайшие Пролёты (ближайшие 24 часа)

TLE

УстаревшееSource: Space-Track

Эпоха: Sep 6, 2025, 01:43 UTC

1 44667U 18079AD  25249.07164141 -.00000151  00000-0  00000-0 0  9996
2 44667  13.2029  40.4815 4488204 307.5633  19.4455  1.90707590 12745

Отслеживайте ATLAS 5 CENTAUR DEB в реальном времени с AllMySat

Download on the App Store